Temp
57 58 57 56 55 53 60 64 60 81 82 62 65 58 61 56 63 66 62 60 57 49 49 47 45 48 56 67 72 69 81 76 69 75 89 90 86 81 81 71 67 75 75 77
58 58 57 56 54 54 58 59 65 81 76 53 55 60 60 62 59 58 54 55 58 57 49 44 46 46 55 61 66 63 68 70 64 69 80 86 81 83 83 83 81 70 70 76
58 58 57 56 55 54 58 59 52 61 61 61 55 53 53 54 63 56 51 51 59 54 48 52 42 43 54 59 65 65 67 66 66 66 72 82 76 80 83 81 74 74 77 79
58 58 57 56 55 55 59 60 53 54 45 51 51 53 54 52 50 54 52 53 45 47 44 45 42 47 52 56 63 69 71 62 69 74 80 82 81 79 81 78 81 74 80 82
58 58 57 57 56 54 59 48 43 45 46 52 50 49 46 50 54 54 52 50 45 47 46 48 45 49 47 45 59 60 68 60 67 67 76 78 75 82 81 82 82 83 84 84
58 58 57 57 56 56 56 52 51 42 39 47 45 47 48 50 54 55 57 52 53 52 54 58 59 60 58 53 54 57 59 60 60 58 70 72 68 77 81 82 85 84 79 86
58 58 57 57 57 56 59 54 46 38 36 44 45 47 49 47 49 50 56 57 54 59 66 66 64 63 61 61 61 64 57 57 59 57 63 53 73 84 84 82 86 89 89 90
58 58 58 58 57 56 56 54 44 39 35 43 45 47 45 49 53 52 54 59 62 61 61 52 49 51 54 58 62 62 64 59 55 55 58 66 72 79 79 77 79 90 89 91
57 57 58 58 57 56 55 52 48 43 37 40 48 44 48 43 44 53 55 63 68 64 54 49 42 38 50 51 56 66 64 63 56 57 53 53 69 82 88 87 70 84 87 87
57 57 57 58 58 57 55 51 51 45 38 42 47 42 41 50 47 47 54 55 56 62 40 44 44 46 55 51 51 52 54 54 52 54 53 63 72 78 84 66 61 76 79 84
57 57 57 57 57 57 54 52 52 46 40 44 50 52 47 49 48 41 51 51 46 49 41 43 44 43 49 53 54 53 53 50 50 54 52 50 72 74 63 68 73 74 75 76
56 56 57 57 57 57 56 49 53 51 43 46 55 58 59 57 57 50 49 48 50 52 41 43 47 46 51 51 45 62 51 55 53 57 58 69 71 71 74 77 73 73 73 76
56 56 57 57 57 56 56 52 50 47 43 45 50 55 63 65 63 65 48 53 55 53 56 49 51 45 53 46 51 51 56 62 56 58 63 66 70 74 75 75 74 75 76 76
56 56 56 57 57 56 57 52 51 50 45 39 54 66 58 65 63 62 60 55 55 54 51 44 43 42 52 46 49 49 55 57 54 55 61 65 68 70 72 72 73 74 75 75
55 56 56 56 57 56 59 60 57 55 46 41 50 58 60 60 56 53 54 50 47 44 40 38 37 41 41 48 50 48 56 50 46 47 56 55 57 64 69 70 72 73 73 73
55 55 56 56 56 55 59 51 58 60 56 43 40 61 54 55 51 49 48 46 45 43 39 37 39 44 39 35 37 50 50 50 52 48 54 56 59 63 66 65 68 72 73 73
55 55 56 57 56 62 58 51 54 56 58 46 45 47 54 53 50 46 45 46 41 39 37 35 36 37 39 35 33 41 42 45 45 47 47 46 52 55 63 65 67 68 71 73
55 55 55 55 53 53 56 61 56 58 53 49 40 48 53 56 47 42 44 40 40 39 38 38 36 37 36 32 38 43 46 48 53 55 58 52 55 59 61 64 64 63 64 67
55 55 55 61 60 59 57 56 56 61 55 42 47 39 44 62 52 45 43 41 36 40 36 38 37 33 33 37 42 44 45 46 48 57 59 58 54 53 58 60 61 61 62 65
55 58 59 54 62 56 57 53 49 52 57 56 45 52 45 57 52 48 45 42 43 37 44 45 41 37 45 47 47 47 46 48 53 52 50 51 50 51 55 57 61 62 63 65
62 63 64 63 56 58 53 55 53 54 46 49 49 55 51 60 48 47 52 50 51 41 47 45 39 36 43 50 49 49 49 49 50 51 51 51 54 56 56 58 61 60 57 57
66 69 70 65 57 59 58 54 57 52 50 62 60 59 54 60 59 48 53 49 54 46 56 43 33 42 48 51 52 52 51 50 49 51 50 51 51 51 51 51 52 52 52 53
72 68 65 65 64 46 51 47 52 53 64 65 66 51 51 59 60 55 56 53 49 60 45 35 42 48 52 53 54 54 56 55 51 50 51 51 51 51 50 50 51 52 52 52
70 64 41 59 56 61 62 60 62 68 69 69 68 51 53 61 60 60 49 53 54 42 34 35 45 49 52 56 56 54 53 55 56 55 51 50 49 49 50 51 51 51 51 52
66 66 46 59 67 71 71 71 70 70 72 71 67 66 65 61 56 57 55 48 38 37 36 43 50 51 51 55 57 56 55 56 56 57 58 55 52 50 49 50 51 51 51 52
71 69 64 69 67 66 68 67 66 72 71 73 70 63 56 55 55 50 46 42 35 43 45 50 55 54 53 53 55 59 58 57 57 57 58 60 58 56 54 55 53 52 53 51
66 68 73 70 67 65 67 68 68 73 69 62 65 55 52 59 50 46 51 46 52 56 55 58 56 56 53 55 56 58 60 58 59 58 59 59 61 61 60 56 57 59 58 58
MSLP
1023.99 1023.20 1022.57 1022.05 1021.29 1020.36 1017.96 1015.67 1011.46 1009.22 1009.45 1008.62 1007.54 1007.26 1007.59 1007.88 1007.41 1007.31 1007.35 1007.62 1007.23 1007.62 1008.00 1007.11 1006.34 1004.22 1001.95 999.15 996.73 993.40 990.85 989.89 988.81 987.12 986.45 987.49 988.13 988.53 988.92 989.24 989.69 989.39 988.15 986.29
1023.92 1023.23 1022.66 1022.19 1021.51 1020.83 1019.62 1016.04 1012.18 1009.61 1010.05 1009.63 1009.30 1008.98 1008.71 1008.75 1008.39 1008.58 1008.75 1008.38 1008.06 1008.37 1008.43 1008.15 1007.62 1006.32 1004.45 1001.87 998.88 996.42 994.37 990.56 989.15 987.95 986.49 986.13 986.69 987.68 988.52 988.93 989.38 988.66 988.06 986.87
1023.88 1023.27 1022.70 1022.30 1021.69 1021.09 1020.24 1016.82 1013.90 1012.65 1012.56 1012.09 1011.74 1010.72 1010.09 1009.33 1009.04 1009.66 1010.53 1010.09 1008.45 1008.62 1008.60 1008.54 1008.27 1007.64 1005.49 1003.42 1000.27 997.72 996.29 993.13 990.06 987.27 986.10 985.47 986.22 987.09 987.76 988.24 987.90 988.20 987.63 987.32
1023.65 1023.17 1022.66 1022.35 1021.77 1021.25 1020.42 1017.76 1016.58 1016.40 1015.23 1014.19 1013.85 1012.74 1011.34 1010.27 1009.87 1010.36 1010.45 1009.50 1009.81 1009.91 1008.77 1008.55 1008.28 1007.83 1006.11 1004.01 1000.96 997.75 995.43 993.47 991.43 988.96 987.31 986.02 986.02 986.70 986.94 987.01 987.29 987.47 987.13 986.85
1023.28 1022.86 1022.45 1022.25 1021.77 1021.33 1019.84 1019.42 1019.68 1019.47 1018.06 1016.15 1015.10 1013.70 1013.08 1011.41 1010.35 1010.18 1009.55 1009.29 1009.64 1010.32 1008.70 1008.23 1007.45 1007.32 1007.04 1005.70 1002.33 999.80 996.89 994.59 992.82 990.39 988.64 987.66 986.52 985.78 986.39 986.64 987.04 987.04 986.87 986.36
1022.75 1022.45 1022.17 1021.86 1021.65 1021.38 1020.09 1020.63 1020.77 1020.69 1018.98 1017.04 1016.03 1014.74 1013.70 1012.50 1011.56 1010.96 1009.99 1009.55 1008.88 1008.06 1007.64 1007.40 1007.01 1006.69 1006.13 1005.99 1003.81 1001.27 999.00 996.63 994.59 992.05 990.71 988.83 987.11 985.91 985.70 986.38 986.53 986.85 986.46 986.49
1022.32 1022.00 1021.64 1021.35 1021.24 1021.17 1020.42 1020.51 1021.01 1020.91 1019.17 1017.72 1016.37 1015.43 1014.69 1013.63 1012.61 1010.89 1009.93 1009.43 1008.48 1007.76 1007.36 1006.57 1005.81 1004.99 1004.24 1004.21 1003.12 1001.84 1000.19 998.68 996.56 994.11 992.13 989.97 988.28 987.15 986.93 986.45 986.47 986.70 987.02 986.79
1021.89 1021.55 1021.00 1020.72 1020.50 1020.46 1020.17 1020.21 1020.89 1020.76 1019.41 1018.08 1016.57 1015.48 1015.02 1013.89 1012.46 1010.98 1009.98 1008.73 1008.25 1008.77 1007.02 1006.44 1005.05 1003.78 1002.93 1002.30 1002.02 1001.26 1000.53 999.63 997.66 995.19 993.14 991.23 989.43 988.02 987.52 987.47 987.25 987.33 987.35 987.64
1021.24 1021.02 1020.41 1020.06 1019.81 1019.73 1019.58 1019.42 1019.91 1020.16 1019.65 1017.65 1016.44 1015.97 1014.91 1014.14 1012.99 1010.81 1009.66 1008.55 1008.01 1007.54 1007.39 1006.61 1004.95 1004.20 1001.50 1000.71 1000.54 1000.42 1000.49 999.98 999.26 996.71 994.46 992.07 990.74 988.92 988.22 988.26 989.22 989.75 989.26 989.29
1020.62 1020.33 1019.81 1019.41 1019.11 1018.98 1018.91 1018.57 1018.76 1019.24 1019.00 1017.65 1016.74 1015.85 1015.37 1014.53 1013.61 1012.33 1010.55 1010.14 1008.97 1008.19 1009.46 1007.39 1005.63 1004.02 1002.29 1000.10 999.24 999.83 1000.27 1000.39 999.52 998.28 996.30 993.61 992.59 991.55 990.22 990.67 994.05 993.07 992.15 991.34
1020.02 1019.63 1019.09 1018.69 1018.48 1018.24 1018.20 1017.72 1017.91 1018.45 1018.21 1017.04 1016.30 1015.56 1014.99 1014.30 1013.83 1013.47 1012.19 1011.49 1011.51 1009.63 1009.60 1008.58 1007.16 1006.02 1004.13 1002.13 1001.50 1000.82 1000.49 1000.72 1000.44 999.26 997.43 995.95 995.75 994.29 994.03 995.31 995.47 995.25 995.00 994.82
1019.36 1018.86 1018.27 1017.97 1017.75 1017.57 1017.44 1017.24 1017.24 1017.67 1017.96 1016.80 1015.73 1014.91 1014.53 1014.07 1013.74 1013.57 1013.47 1012.82 1012.20 1011.47 1011.74 1010.88 1009.31 1007.61 1005.71 1004.19 1002.95 1001.72 1001.98 1001.78 1000.48 999.92 998.40 996.78 997.29 996.71 997.16 996.91 996.77 996.88 997.06 997.07
1018.68 1018.03 1017.53 1017.32 1017.04 1016.86 1016.77 1016.80 1017.31 1017.72 1017.65 1016.63 1015.19 1013.00 1012.50 1013.16 1013.34 1013.11 1013.42 1012.92 1012.94 1012.75 1012.84 1012.27 1010.82 1009.21 1007.69 1006.09 1004.59 1004.39 1003.58 1002.45 1001.78 1001.07 1000.01 998.75 998.50 998.19 998.25 998.24 998.27 998.40 998.52 998.47
1018.03 1017.32 1017.00 1016.68 1016.35 1016.06 1016.26 1016.76 1017.22 1017.37 1017.34 1016.61 1013.39 1012.62 1013.06 1013.06 1013.32 1013.21 1013.61 1014.13 1014.19 1014.37 1014.45 1014.12 1013.32 1012.17 1010.92 1009.57 1008.29 1007.00 1006.11 1005.02 1003.92 1002.85 1001.64 1000.55 999.65 999.61 999.44 999.38 999.30 999.37 999.44 999.39
1017.36 1016.86 1016.48 1016.14 1015.84 1015.81 1015.82 1015.94 1016.70 1016.99 1017.38 1016.47 1014.38 1013.63 1013.42 1013.68 1014.13 1014.41 1014.60 1014.93 1015.12 1015.33 1015.64 1015.78 1015.35 1014.76 1013.99 1012.02 1010.58 1008.61 1007.54 1006.94 1006.47 1004.98 1003.90 1003.23 1002.22 1001.30 1000.55 999.97 999.53 999.39 999.51 999.62
1016.95 1016.50 1016.09 1015.79 1015.78 1015.93 1015.56 1015.73 1016.21 1016.57 1017.12 1016.73 1015.13 1013.26 1013.85 1014.28 1014.77 1015.13 1015.45 1015.62 1015.96 1016.26 1016.57 1016.55 1016.18 1015.80 1015.68 1014.37 1012.43 1010.37 1009.73 1009.05 1008.15 1006.41 1005.90 1004.25 1003.40 1002.63 1001.87 1001.28 1000.59 999.84 999.69 999.60
1016.73 1016.37 1016.08 1015.97 1015.96 1015.66 1015.75 1016.51 1016.70 1016.80 1016.90 1016.54 1015.21 1014.06 1014.16 1014.57 1015.13 1015.76 1016.01 1016.28 1016.74 1016.87 1016.88 1016.92 1016.62 1016.30 1016.00 1015.02 1013.26 1011.06 1009.67 1007.75 1006.59 1005.86 1005.58 1004.20 1003.16 1002.18 1002.29 1001.80 1001.44 1000.69 999.98 999.72
1016.58 1016.49 1016.38 1016.32 1016.21 1016.42 1016.36 1016.65 1016.95 1016.84 1016.47 1016.43 1015.77 1014.28 1013.46 1014.17 1014.69 1015.63 1016.39 1016.67 1017.00 1016.95 1016.88 1016.76 1016.63 1016.40 1015.96 1014.59 1012.73 1010.46 1008.21 1005.75 1003.67 1002.89 1002.41 1002.36 1001.85 1001.89 1001.66 1001.66 1001.67 1001.37 1000.80 1000.07
1016.35 1016.47 1016.60 1016.30 1016.07 1015.59 1016.31 1016.97 1017.02 1016.44 1016.42 1015.81 1015.36 1014.62 1013.28 1013.01 1013.94 1015.06 1015.88 1016.30 1016.40 1016.79 1016.43 1015.83 1016.08 1015.74 1015.12 1013.88 1011.66 1009.77 1007.49 1004.89 1003.35 1002.36 1001.66 1001.05 1000.56 1001.13 1001.41 1001.44 1001.36 1001.18 1001.11 1000.63
1016.68 1016.73 1016.00 1015.58 1015.70 1016.57 1016.86 1017.11 1016.59 1016.01 1015.14 1015.00 1014.35 1014.06 1013.20 1012.90 1012.94 1013.70 1014.31 1014.87 1014.56 1014.82 1014.39 1014.59 1014.69 1014.80 1014.69 1013.06 1011.88 1010.17 1008.20 1005.34 1004.04 1003.41 1002.64 1001.60 1000.79 1001.24 1001.60 1001.69 1001.69 1001.37 1001.00 1000.65
1016.03 1014.62 1014.15 1015.56 1016.32 1016.04 1015.70 1014.55 1014.44 1013.89 1013.57 1013.48 1012.69 1012.17 1012.01 1012.09 1012.32 1012.63 1012.54 1012.27 1012.35 1012.29 1012.52 1012.98 1014.06 1013.98 1013.61 1012.58 1011.46 1010.63 1008.98 1007.27 1005.96 1004.81 1003.88 1002.76 1002.01 1001.78 1002.11 1002.31 1002.08 1001.81 1001.56 1000.66
1014.04 1013.74 1013.65 1014.76 1014.84 1013.91 1013.12 1013.10 1012.84 1012.49 1011.58 1010.23 1009.77 1009.89 1011.19 1010.67 1011.35 1011.78 1011.03 1010.66 1010.39 1010.87 1011.97 1013.20 1013.79 1014.24 1013.39 1012.32 1011.45 1010.71 1009.82 1008.77 1007.44 1006.14 1005.17 1004.47 1003.81 1003.69 1003.71 1003.53 1003.37 1002.92 1002.44 1001.40
1013.41 1013.14 1012.34 1012.22 1012.19 1012.33 1012.17 1011.85 1011.25 1010.44 1009.28 1008.72 1007.88 1009.71 1009.89 1009.62 1009.83 1009.84 1009.22 1009.38 1010.28 1010.80 1012.56 1014.15 1014.33 1013.97 1013.27 1012.39 1011.63 1011.04 1010.04 1009.16 1008.74 1008.00 1007.12 1006.22 1005.47 1005.27 1005.21 1005.01 1004.91 1004.23 1003.78 1003.34
1012.01 1011.48 1012.06 1011.31 1010.98 1010.42 1010.27 1009.89 1009.21 1008.58 1008.14 1007.40 1007.14 1008.37 1009.13 1008.31 1008.41 1008.81 1009.59 1010.45 1011.39 1012.46 1013.91 1014.70 1014.43 1014.00 1013.37 1012.45 1011.99 1011.30 1010.62 1009.84 1009.10 1008.75 1008.92 1008.77 1008.32 1008.00 1007.69 1007.18 1006.69 1005.94 1005.58 1004.96
1011.62 1011.32 1011.45 1010.66 1010.05 1009.41 1009.33 1009.19 1008.79 1008.43 1007.73 1006.84 1006.99 1007.37 1007.83 1007.93 1008.83 1009.62 1010.39 1010.92 1012.56 1013.99 1014.63 1014.52 1014.22 1013.96 1013.58 1012.77 1011.99 1011.53 1011.19 1010.65 1009.99 1009.23 1008.80 1009.03 1009.24 1009.07 1008.81 1008.43 1007.92 1007.51 1007.00 1006.52
1011.09 1010.71 1010.41 1010.13 1009.91 1009.75 1009.62 1009.46 1009.00 1008.72 1007.69 1006.53 1006.63 1007.32 1008.55 1009.11 1010.11 1010.73 1011.49 1012.31 1013.20 1013.72 1014.11 1014.03 1013.81 1013.68 1013.54 1013.13 1012.48 1011.71 1011.36 1011.08 1010.59 1010.18 1009.51 1008.97 1008.76 1008.70 1008.79 1008.63 1008.55 1008.23 1007.88 1007.19
1011.12 1010.49 1010.38 1010.24 1010.50 1010.42 1010.12 1009.81 1009.49 1008.96 1008.13 1007.59 1007.22 1008.33 1009.34 1010.21 1011.04 1012.02 1012.57 1012.82 1012.72 1012.66 1012.82 1013.11 1013.55 1013.44 1013.50 1013.15 1012.64 1011.96 1011.40 1011.11 1010.79 1010.30 1009.82 1009.30 1008.93 1008.79 1008.58 1008.47 1008.32 1007.74 1007.03 1006.63
Wind_Speed
18 19 19 19 22 23 16 9 8 9 8 14 7 9 13 10 16 14 15 14 18 11 17 18 16 17 15 27 25 18 19 23 21 26 29 31 28 27 25 13 21 16 15 11
17 18 19 18 18 20 13 10 14 8 15 10 12 15 17 17 11 17 11 20 14 15 13 15 10 16 26 35 27 13 13 14 20 26 24 30 33 30 27 21 17 20 15 10
18 17 17 17 15 18 11 8 10 9 11 13 18 18 17 15 12 9 14 32 12 16 16 15 7 15 17 31 30 13 6 9 20 19 20 18 29 29 28 28 18 15 18 7
18 17 16 15 15 15 9 6 6 10 9 13 20 21 19 18 13 3 8 16 4 24 11 16 5 13 22 23 25 18 8 13 18 25 23 23 28 26 29 30 21 22 18 19
18 18 16 14 13 14 10 3 3 6 12 17 17 18 15 19 16 17 16 17 8 20 17 12 13 16 13 11 20 21 18 8 13 19 21 19 22 32 30 29 29 21 23 17
19 18 16 14 11 8 5 3 2 2 6 14 10 11 19 21 21 13 16 10 17 19 13 15 16 14 15 17 22 18 14 13 10 16 17 21 20 12 25 26 24 24 20 17
20 18 17 15 12 7 6 4 1 2 6 11 11 16 19 21 21 19 13 17 18 16 22 16 16 19 19 19 19 16 11 13 10 11 14 17 12 10 14 12 24 23 18 15
20 20 19 16 14 11 8 2 3 3 5 8 17 15 15 19 21 17 17 12 16 11 18 15 14 17 13 17 18 15 11 10 8 6 8 8 12 14 18 13 10 10 20 17
21 21 20 18 15 12 8 4 4 3 2 6 7 16 14 14 12 15 10 6 9 13 5 12 15 4 12 13 18 12 11 10 8 10 7 11 5 17 7 9 12 14 9 2
22 21 20 19 17 13 6 3 9 3 3 6 9 5 7 8 10 11 11 16 14 15 1 9 11 6 12 4 17 14 12 8 10 10 7 4 10 20 11 9 7 16 21 8
21 20 20 18 17 15 6 2 8 5 4 8 12 13 12 12 9 6 12 8 7 8 4 5 7 5 6 6 4 5 7 12 11 12 14 12 18 12 10 8 13 16 18 20
20 20 19 17 15 13 8 3 6 7 2 6 12 16 18 21 16 10 4 12 12 5 6 6 6 13 9 11 8 6 7 6 8 7 11 14 15 13 13 13 9 12 12 14
19 19 18 16 14 12 7 0 2 3 2 6 9 6 6 10 10 11 8 5 5 5 9 7 6 7 10 11 9 16 19 19 12 13 16 19 14 14 11 14 13 12 12 13
18 19 18 15 12 7 4 3 4 1 2 3 4 9 4 8 9 6 5 7 11 10 7 5 4 5 11 10 16 15 13 20 18 20 18 18 18 17 18 16 17 16 14 15
18 18 16 12 7 3 5 5 5 2 0 3 7 8 6 8 7 5 6 5 4 1 1 1 2 4 4 7 8 11 13 17 14 16 25 21 23 23 24 19 18 16 15 16
17 16 13 6 2 3 2 2 4 5 2 2 4 4 5 4 5 5 4 1 2 2 1 1 3 3 1 4 5 14 16 20 24 25 27 29 26 27 28 23 22 20 16 15
13 9 3 4 3 4 3 3 3 5 3 2 4 3 4 4 4 2 2 4 4 1 1 2 1 2 2 2 5 14 25 26 27 27 27 28 32 23 24 21 21 21 21 19
6 1 2 3 12 11 3 6 3 2 2 1 2 4 1 2 1 2 1 2 1 1 2 1 1 2 1 5 15 19 25 22 13 17 19 28 27 22 23 22 19 20 18 19
3 6 2 4 4 1 4 6 3 3 1 2 0 1 3 3 2 3 3 2 1 1 2 2 2 1 4 16 21 25 32 23 16 12 12 15 24 22 18 17 19 21 19 18
7 5 4 3 4 13 9 3 2 4 3 2 3 2 3 2 2 2 3 4 2 2 0 3 2 3 15 20 20 20 30 26 23 20 14 9 3 9 13 15 14 16 17 17
5 6 2 6 6 2 3 2 2 2 2 4 6 5 4 3 2 2 2 2 3 1 3 2 5 6 16 20 19 21 24 32 26 19 17 19 9 5 7 11 13 8 10 15
3 2 3 5 4 4 2 4 2 2 4 4 6 1 4 2 4 3 4 4 1 5 4 5 5 8 14 16 20 21 20 21 29 27 26 24 23 19 15 15 11 12 10 11
6 6 3 1 1 6 5 6 4 5 5 10 11 3 3 4 6 5 3 6 4 2 5 4 5 12 13 14 15 18 20 21 16 24 27 27 27 28 25 21 19 19 16 13
3 1 5 1 2 3 2 6 8 10 11 13 6 4 3 4 3 4 4 3 6 5 4 3 6 12 14 12 13 15 20 21 22 17 16 18 19 18 16 15 14 13 14 15
3 2 1 4 6 7 10 10 9 11 11 10 7 4 3 5 4 4 5 4 4 2 2 3 7 8 9 14 13 13 14 16 17 17 14 14 11 13 15 15 14 15 14 13
3 3 5 7 9 10 10 10 10 11 11 11 3 5 4 6 4 5 7 5 3 4 3 3 7 10 9 10 11 12 10 12 13 14 13 9 10 9 9 10 9 8 12 17
4 2 7 7 8 9 10 10 10 11 8 8 5 7 5 4 5 4 4 4 6 6 2 4 4 9 8 8 7 11 11 10 10 12 9 10 7 9 9 10 8 11 12 12
Wind_Direction
333 337 341 339 340 342 334 304 304 343 315 301 325 340 349 326 319 319 314 307 301 348 327 313 311 294 290 324 321 295 239 230 245 249 213 208 211 215 211 218 217 243 266 278
329 333 336 336 341 349 330 309 300 25 356 312 337 337 330 329 322 335 347 305 318 312 301 299 286 322 324 309 322 354 353 239 229 241 248 190 212 208 221 218 225 220 241 245
325 329 332 332 338 335 331 294 316 352 325 355 336 336 318 313 329 6 354 300 333 315 316 294 273 326 314 319 303 325 289 262 253 227 232 207 193 214 209 226 210 225 223 162
320 324 328 329 329 330 311 315 346 340 315 328 325 311 304 310 311 231 216 290 87 299 318 320 284 308 321 323 323 320 269 261 255 256 238 232 191 208 214 211 224 214 224 220
318 321 326 323 321 325 277 300 356 347 300 289 311 311 330 315 323 326 316 326 84 278 315 314 311 323 305 297 318 332 337 283 275 266 261 271 266 198 212 214 221 223 234 226
314 316 321 316 318 320 301 53 320 263 279 292 290 292 323 318 315 318 302 257 295 305 310 307 293 278 254 258 286 313 324 342 309 254 253 254 249 244 203 217 210 220 221 234
310 315 315 312 308 287 295 284 126 225 265 296 282 294 301 309 303 300 306 304 299 316 313 287 287 268 251 247 263 277 297 303 302 279 278 242 244 249 251 257 219 213 220 233
309 314 310 309 303 291 281 253 155 207 262 274 291 297 291 301 310 302 281 277 296 248 285 304 295 281 227 241 236 246 272 284 298 275 245 231 243 230 217 237 237 214 215 223
309 313 309 309 303 292 280 231 161 174 269 242 275 313 305 308 306 302 329 290 306 297 309 282 263 287 320 199 223 222 229 246 280 295 273 225 281 232 242 230 227 329 288 310
313 313 308 306 303 298 279 259 183 157 225 260 271 281 290 299 323 305 337 340 319 284 297 295 283 289 329 296 199 184 201 245 239 242 266 295 356 347 354 203 40 9 15 352
314 311 306 305 304 299 288 246 180 177 215 271 267 284 277 275 282 290 326 316 354 337 357 315 349 7 306 292 24 0 204 190 224 246 244 236 51 358 37 41 47 29 23 23
313 308 304 305 302 299 297 246 185 201 190 283 310 288 275 262 270 282 317 302 324 332 5 356 329 310 302 350 305 205 212 216 288 263 254 310 353 357 4 3 25 23 14 14
314 309 308 309 305 302 271 138 107 92 342 283 256 266 316 205 250 250 269 296 348 349 348 315 319 306 335 322 320 352 330 322 325 282 272 289 310 317 329 333 335 341 334 333
317 311 315 316 312 289 204 148 158 160 96 294 8 50 6 19 0 299 262 279 309 328 354 343 315 323 353 325 321 312 314 316 309 303 289 296 289 291 299 306 306 305 309 309
318 320 324 323 302 229 188 165 167 157 320 325 316 337 65 65 64 13 352 357 324 327 73 256 307 314 319 315 300 283 305 310 301 294 306 307 297 306 314 307 275 274 276 274
323 329 331 324 243 226 236 162 143 166 187 304 312 47 93 90 62 36 31 360 358 61 51 240 248 240 253 288 280 283 301 294 284 280 284 285 284 285 284 290 295 294 283 281
323 343 37 101 148 232 358 30 72 129 179 260 308 22 62 61 98 54 44 43 44 47 255 224 240 232 204 264 260 303 297 277 265 258 258 267 267 257 263 262 271 288 285 283
323 156 163 106 100 121 136 88 97 295 265 44 7 320 259 77 34 107 81 68 22 233 308 320 261 328 253 256 304 323 328 324 304 255 244 229 249 254 248 248 255 268 279 283
205 171 238 249 223 336 76 119 220 295 230 133 96 301 305 114 93 114 161 164 206 76 287 253 166 334 28 321 328 344 343 332 329 320 319 299 228 235 241 239 245 243 254 264
150 206 216 191 62 120 142 166 208 213 167 216 234 129 273 326 82 247 186 191 200 240 122 171 31 44 1 349 359 354 355 9 22 20 13 5 66 193 217 229 247 252 250 259
215 208 78 72 140 225 228 254 39 350 281 186 219 221 301 119 292 297 227 318 205 31 83 24 4 1 1 350 6 12 11 10 20 24 33 36 30 172 203 227 246 300 311 274
348 35 137 147 207 224 336 13 357 325 288 309 293 99 203 174 171 228 201 250 155 61 72 24 359 4 355 356 5 12 15 24 19 14 29 36 45 46 51 60 40 40 16 36
231 223 196 52 97 28 23 345 305 293 288 296 291 72 191 223 210 239 328 11 71 34 57 0 6 350 4 3 7 10 10 19 35 32 26 23 26 35 34 38 37 40 33 40
263 23 354 57 253 306 289 307 329 343 335 309 2 111 250 263 67 360 33 46 34 48 16 352 322 359 355 12 13 11 10 11 12 37 52 42 34 39 37 38 22 28 32 31
7 112 234 345 320 352 12 5 341 352 318 324 316 56 320 33 58 24 23 41 54 66 310 276 325 9 358 0 9 16 19 9 4 2 27 59 66 59 51 32 29 36 36 46
0 358 8 357 5 5 4 357 355 349 326 319 84 52 23 31 47 19 15 35 355 319 242 313 354 12 1 8 351 0 22 15 4 358 6 26 51 61 95 90 76 59 59 57
203 346 23 10 26 1 1 357 0 336 354 2 5 27 55 15 52 28 16 335 312 345 21 35 9 20 8 352 348 333 13 8 11 352 358 359 53 56 51 48 62 49 38 49